Time,TemperatureF,DewpointF,PressureIn,WindDirection,WindDirectionDegrees,WindSpeedMPH,WindSpeedGustMPH,Humidity,HourlyPrecipIn,Conditions,Clouds,dailyrainin,SoftwareType,DateUTC
2013-02-12 00:04:00,45.8,20.0,29.97,NW,325,0.0,-999.0,36,-99.99,,,0.00,weatherlink.com 1.10,2013-02-12 05:04:00,
2013-02-12 00:19:00,45.6,19.0,29.97,NW,321,0.0,-999.0,34,-99.99,,,0.00,weatherlink.com 1.10,2013-02-12 05:19:00,
2013-02-12 00:34:00,45.9,18.0,29.96,NW,321,0.0,-999.0,33,-99.99,,,0.00,weatherlink.com 1.10,2013-02-12 05:34:00,
2013-02-12 00:49:00,44.2,20.0,29.96,NW,321,0.0,-999.0,38,-99.99,,,0.00,weatherlink.com 1.10,2013-02-12 05:49:00,
2013-02-12 01:04:00,44.1,17.0,29.96,North,350,5.0,-999.0,34,-99.99,,,0.00,weatherlink.com 1.10,2013-02-12 06:04:00,
2013-02-12 01:19:00,44.5,19.0,29.95,NNE,13,2.0,-999.0,36,-99.99,,,0.00,weatherlink.com 1.10,2013-02-12 06:19:00,
2013-02-12 01:34:00,44.2,20.0,29.94,NW,322,10.0,-999.0,39,-99.99,,,0.00,weatherlink.com 1.10,2013-02-12 06:34:00,
2013-02-12 01:49:00,43.8,22.0,29.93,NW,322,14.0,-999.0,42,-99.99,,,0.00,weatherlink.com 1.10,2013-02-12 06:49:00,
2013-02-12 02:04:00,43.6,22.0,29.94,NW,320,20.0,-999.0,42,-99.99,,,0.00,weatherlink.com 1.10,2013-02-12 07:04:00,
2013-02-12 02:19:00,43.6,22.0,29.95,NNW,328,17.0,-999.0,42,-99.99,,,0.00,weatherlink.com 1.10,2013-02-12 07:19:00,
2013-02-12 02:34:00,43.5,22.0,29.95,NNW,333,6.0,-999.0,43,-99.99,,,0.00,weatherlink.com 1.10,2013-02-12 07:34:00,
2013-02-12 02:49:00,43.3,22.0,29.95,WNW,295,9.0,-999.0,43,-99.99,,,0.00,weatherlink.com 1.10,2013-02-12 07:49:00,
2013-02-12 03:04:00,43.3,23.0,29.93,NW,322,13.0,-999.0,44,-99.99,,,0.00,weatherlink.com 1.10,2013-02-12 08:04:00,
2013-02-12 03:19:00,43.2,22.0,29.93,North,9,14.0,-999.0,44,-99.99,,,0.00,weatherlink.com 1.10,2013-02-12 08:19:00,
2013-02-12 03:34:00,42.8,24.0,29.94,NNW,333,15.0,-999.0,47,-99.99,,,0.00,weatherlink.com 1.10,2013-02-12 08:34:00,
2013-02-12 03:49:00,42.3,26.0,29.93,NNW,336,9.0,-999.0,52,-99.99,,,0.00,weatherlink.com 1.10,2013-02-12 08:49:00,
2013-02-12 04:04:00,42.2,25.0,29.93,NNW,328,9.0,-999.0,51,-99.99,,,0.00,weatherlink.com 1.10,2013-02-12 09:04:00,
2013-02-12 04:19:00,41.7,26.0,29.94,NW,306,9.0,-999.0,53,-99.99,,,0.00,weatherlink.com 1.10,2013-02-12 09:19:00,
2013-02-12 04:34:00,41.4,26.0,29.95,NW,321,10.0,-999.0,55,-99.99,,,0.00,weatherlink.com 1.10,2013-02-12 09:34:00,
2013-02-12 04:50:00,41.1,25.0,29.93,NW,311,11.0,-999.0,54,-99.99,,,0.00,weatherlink.com 1.10,2013-02-12 09:50:00,
2013-02-12 05:04:00,40.6,26.0,29.93,North,355,14.0,-999.0,57,-99.99,,,0.00,weatherlink.com 1.10,2013-02-12 10:04:00,
2013-02-12 05:19:00,39.8,27.0,29.95,NW,313,11.0,-999.0,61,-99.99,,,0.00,weatherlink.com 1.10,2013-02-12 10:19:00,
2013-02-12 05:35:00,38.8,27.0,29.94,NNW,341,13.0,-999.0,63,-99.99,,,0.00,weatherlink.com 1.10,2013-02-12 10:35:00,
2013-02-12 05:49:00,39.5,25.0,29.94,NNE,24,8.0,-999.0,56,-99.99,,,0.00,weatherlink.com 1.10,2013-02-12 10:49:00,
2013-02-12 06:04:00,38.9,26.0,29.94,NW,321,8.0,-999.0,60,-99.99,,,0.00,weatherlink.com 1.10,2013-02-12 11:04:00,
2013-02-12 06:19:00,38.4,25.0,29.95,North,5,8.0,-999.0,58,-99.99,,,0.00,weatherlink.com 1.10,2013-02-12 11:19:00,
2013-02-12 06:34:00,38.6,24.0,29.94,NNW,331,11.0,-999.0,56,-99.99,,,0.00,weatherlink.com 1.10,2013-02-12 11:34:00,
2013-02-12 06:50:00,38.6,24.0,29.95,NNW,340,8.0,-999.0,57,-99.99,,,0.00,weatherlink.com 1.10,2013-02-12 11:50:00,
2013-02-12 07:04:00,38.9,23.0,29.97,North,350,6.0,-999.0,53,-99.99,,,0.00,weatherlink.com 1.10,2013-02-12 12:04:00,
2013-02-12 07:20:00,38.6,23.0,29.98,NNW,347,5.0,-999.0,54,-99.99,,,0.00,weatherlink.com 1.10,2013-02-12 12:20:00,
2013-02-12 07:35:00,38.6,22.0,29.98,North,360,4.0,-999.0,52,-99.99,,,0.00,weatherlink.com 1.10,2013-02-12 12:35:00,
2013-02-12 07:50:00,39.2,22.0,29.97,NNW,336,8.0,-999.0,51,-99.99,,,0.00,weatherlink.com 1.10,2013-02-12 12:50:00,
2013-02-12 08:04:00,39.7,23.0,29.99,North,350,4.0,-999.0,51,-99.99,,,0.00,weatherlink.com 1.10,2013-02-12 13:04:00,
2013-02-12 08:20:00,39.6,24.0,30.01,NE,49,2.0,-999.0,54,-99.99,,,0.00,weatherlink.com 1.10,2013-02-12 13:20:00,
2013-02-12 08:35:00,39.3,22.0,30.00,North,360,4.0,-999.0,50,-99.99,,,0.00,weatherlink.com 1.10,2013-02-12 13:35:00,
2013-02-12 08:50:00,40.1,23.0,30.01,North,5,3.0,-999.0,51,-99.99,,,0.00,weatherlink.com 1.10,2013-02-12 13:50:00,
2013-02-12 09:05:00,40.9,23.0,30.00,NNE,15,3.0,-999.0,49,-99.99,,,0.00,weatherlink.com 1.10,2013-02-12 14:05:00,
2013-02-12 09:20:00,41.8,25.0,30.00,NW,319,4.0,-999.0,51,-99.99,,,0.00,weatherlink.com 1.10,2013-02-12 14:20:00,
2013-02-12 09:35:00,41.3,23.0,30.00,NNW,338,6.0,-999.0,48,-99.99,,,0.00,weatherlink.com 1.10,2013-02-12 14:35:00,
2013-02-12 09:50:00,41.6,24.0,30.00,North,355,7.0,-999.0,49,-99.99,,,0.00,weatherlink.com 1.10,2013-02-12 14:50:00,
2013-02-12 10:05:00,41.9,23.0,30.00,North,360,5.0,-999.0,47,-99.99,,,0.00,weatherlink.com 1.10,2013-02-12 15:05:00,
2013-02-12 10:20:00,43.1,24.0,29.99,North,350,7.0,-999.0,48,-99.99,,,0.00,weatherlink.com 1.10,2013-02-12 15:20:00,
2013-02-12 10:35:00,43.9,26.0,29.99,NNW,330,7.0,-999.0,50,-99.99,,,0.00,weatherlink.com 1.10,2013-02-12 15:35:00,
2013-02-12 10:50:00,44.4,26.0,29.99,North,360,3.0,-999.0,49,-99.99,,,0.00,weatherlink.com 1.10,2013-02-12 15:50:00,
2013-02-12 11:05:00,45.8,27.0,29.97,NE,48,0.0,-999.0,48,-99.99,,,0.00,weatherlink.com 1.10,2013-02-12 16:05:00,
2013-02-12 11:20:00,49.2,28.0,29.99,SW,225,0.0,-999.0,44,-99.99,,,0.00,weatherlink.com 1.10,2013-02-12 16:20:00,
2013-02-12 11:35:00,49.9,30.0,29.99,NNE,19,0.0,-999.0,47,-99.99,,,0.00,weatherlink.com 1.10,2013-02-12 16:35:00,
2013-02-12 11:50:00,50.3,33.0,29.99,WNW,292,4.0,-999.0,51,-99.99,,,0.00,weatherlink.com 1.10,2013-02-12 16:50:00,
2013-02-12 12:05:00,51.0,30.0,29.98,WNW,292,2.0,-999.0,45,-99.99,,,0.00,weatherlink.com 1.10,2013-02-12 17:05:00,
2013-02-12 12:20:00,50.2,32.0,29.98,North,355,2.0,-999.0,50,-99.99,,,0.00,weatherlink.com 1.10,2013-02-12 17:20:00,
2013-02-12 12:35:00,50.5,32.0,29.98,North,350,2.0,-999.0,49,-99.99,,,0.00,weatherlink.com 1.10,2013-02-12 17:35:00,
2013-02-12 12:50:00,50.5,31.0,29.97,NNW,346,0.0,-999.0,47,-99.99,,,0.00,weatherlink.com 1.10,2013-02-12 17:50:00,
2013-02-12 13:05:00,50.6,31.0,29.96,NNW,346,0.0,-999.0,47,-99.99,,,0.00,weatherlink.com 1.10,2013-02-12 18:05:00,
2013-02-12 13:20:00,51.2,32.0,29.96,NW,304,2.0,-999.0,49,-99.99,,,0.00,weatherlink.com 1.10,2013-02-12 18:20:00,
2013-02-12 13:35:00,51.0,32.0,29.95,SW,234,0.0,-999.0,49,-99.99,,,0.00,weatherlink.com 1.10,2013-02-12 18:35:00,
2013-02-12 13:50:00,50.5,34.0,29.96,SW,221,0.0,-999.0,54,-99.99,,,0.00,weatherlink.com 1.10,2013-02-12 18:50:00,
2013-02-12 14:05:00,50.0,36.0,29.95,South,177,0.0,-999.0,58,-99.99,,,0.00,weatherlink.com 1.10,2013-02-12 19:05:00,
2013-02-12 14:20:00,50.1,37.0,29.94,South,179,0.0,-999.0,60,-99.99,,,0.00,weatherlink.com 1.10,2013-02-12 19:20:00,
2013-02-12 14:35:00,49.5,36.0,29.93,South,179,1.0,-999.0,61,-99.99,,,0.00,weatherlink.com 1.10,2013-02-12 19:35:00,
2013-02-12 14:50:00,48.6,36.0,29.93,South,190,0.0,-999.0,62,-99.99,,,0.00,weatherlink.com 1.10,2013-02-12 19:50:00,
2013-02-12 15:05:00,48.0,36.0,29.94,South,190,0.0,-999.0,63,-99.99,,,0.00,weatherlink.com 1.10,2013-02-12 20:05:00,
2013-02-12 15:20:00,47.8,36.0,29.94,South,190,0.0,-999.0,63,-99.99,,,0.00,weatherlink.com 1.10,2013-02-12 20:20:00,
2013-02-12 15:35:00,47.7,36.0,29.95,South,190,0.0,-999.0,63,-99.99,,,0.00,weatherlink.com 1.10,2013-02-12 20:35:00,
2013-02-12 15:50:00,47.5,35.0,29.95,South,190,0.0,-999.0,62,-99.99,,,0.00,weatherlink.com 1.10,2013-02-12 20:50:00,
2013-02-12 16:05:00,47.1,35.0,29.94,SSW,196,3.0,-999.0,64,-99.99,,,0.00,weatherlink.com 1.10,2013-02-12 21:05:00,
2013-02-12 16:20:00,46.5,36.0,29.93,SSW,213,0.0,-999.0,67,-99.99,,,0.00,weatherlink.com 1.10,2013-02-12 21:20:00,
2013-02-12 16:35:00,46.6,37.0,29.92,SW,222,0.0,-999.0,70,-99.99,,,0.00,weatherlink.com 1.10,2013-02-12 21:35:00,
2013-02-12 16:50:00,46.7,35.0,29.91,WNW,300,2.0,-999.0,64,-99.99,,,0.00,weatherlink.com 1.10,2013-02-12 21:50:00,
2013-02-12 17:05:00,46.5,34.0,29.91,NNE,25,4.0,-999.0,61,-99.99,,,0.00,weatherlink.com 1.10,2013-02-12 22:05:00,
2013-02-12 17:20:00,45.8,35.0,29.92,ENE,57,3.0,-999.0,67,-99.99,,,0.00,weatherlink.com 1.10,2013-02-12 22:20:00,
2013-02-12 17:35:00,44.5,34.0,29.87,NNE,30,3.0,-999.0,67,-99.99,,,0.01,weatherlink.com 1.10,2013-02-12 22:35:00,
2013-02-12 17:50:00,43.8,35.0,29.86,ENE,69,2.0,-999.0,70,-99.99,,,0.01,weatherlink.com 1.10,2013-02-12 22:50:00,
2013-02-12 18:05:00,43.6,34.0,29.86,ESE,109,0.0,-999.0,68,-99.99,,,0.01,weatherlink.com 1.10,2013-02-12 23:05:00,
2013-02-12 18:20:00,43.3,30.0,29.83,NNE,24,1.0,-999.0,59,-99.99,,,0.01,weatherlink.com 1.10,2013-02-12 23:20:00,
2013-02-12 18:35:00,44.3,28.0,29.89,ENE,57,2.0,-999.0,53,-99.99,,,0.01,weatherlink.com 1.10,2013-02-12 23:35:00,
2013-02-12 18:50:00,42.6,36.0,29.90,SE,130,2.0,-999.0,76,-99.99,,,0.03,weatherlink.com 1.10,2013-02-12 23:50:00,
2013-02-12 19:05:00,39.3,35.0,29.91,SE,141,4.0,-999.0,84,-99.99,,,0.06,weatherlink.com 1.10,2013-02-13 00:05:00,
2013-02-12 19:20:00,38.6,36.0,29.90,SE,146,2.0,-999.0,89,-99.99,,,0.07,weatherlink.com 1.10,2013-02-13 00:20:00,
2013-02-12 19:35:00,38.7,36.0,29.90,SE,146,1.0,-999.0,90,-99.99,,,0.07,weatherlink.com 1.10,2013-02-13 00:35:00,
2013-02-12 20:05:00,37.3,34.0,29.90,SE,146,2.0,-999.0,89,-99.99,,,0.10,weatherlink.com 1.10,2013-02-13 01:05:00,
2013-02-12 20:20:00,36.8,34.0,29.88,SE,146,4.0,-999.0,89,-99.99,,,0.11,weatherlink.com 1.10,2013-02-13 01:20:00,
2013-02-12 20:35:00,36.8,34.0,29.88,SSE,152,1.0,-999.0,89,-99.99,,,0.11,weatherlink.com 1.10,2013-02-13 01:35:00,
2013-02-12 20:50:00,37.1,34.0,29.89,SE,128,0.0,-999.0,89,-99.99,,,0.11,weatherlink.com 1.10,2013-02-13 01:50:00,
2013-02-12 21:05:00,37.4,34.0,29.89,ENE,62,0.0,-999.0,87,-99.99,,,0.11,weatherlink.com 1.10,2013-02-13 02:05:00,
2013-02-12 21:20:00,38.3,35.0,29.88,ESE,121,1.0,-999.0,87,-99.99,,,0.11,weatherlink.com 1.10,2013-02-13 02:20:00,
2013-02-12 21:35:00,38.3,35.0,29.88,ENE,67,0.0,-999.0,88,-99.99,,,0.11,weatherlink.com 1.10,2013-02-13 02:35:00,
2013-02-12 21:50:00,38.1,35.0,29.89,NNW,346,0.0,-999.0,87,-99.99,,,0.11,weatherlink.com 1.10,2013-02-13 02:50:00,
2013-02-12 22:05:00,38.1,35.0,29.88,NE,36,2.0,-999.0,88,-99.99,,,0.11,weatherlink.com 1.10,2013-02-13 03:05:00,
2013-02-12 22:20:00,37.9,34.0,29.88,NNE,18,1.0,-999.0,86,-99.99,,,0.11,weatherlink.com 1.10,2013-02-13 03:20:00,
2013-02-12 22:35:00,38.2,35.0,29.87,North,360,7.0,-999.0,88,-99.99,,,0.11,weatherlink.com 1.10,2013-02-13 03:35:00,
2013-02-12 22:50:00,38.3,36.0,29.86,NNE,26,1.0,-999.0,90,-99.99,,,0.12,weatherlink.com 1.10,2013-02-13 03:50:00,
2013-02-12 23:05:00,38.0,35.0,29.87,North,355,0.0,-999.0,90,-99.99,,,0.12,weatherlink.com 1.10,2013-02-13 04:05:00,
2013-02-12 23:20:00,38.0,35.0,29.87,East,90,2.0,-999.0,90,-99.99,,,0.12,weatherlink.com 1.10,2013-02-13 04:20:00,
2013-02-12 23:35:00,38.0,36.0,29.85,SSW,212,1.0,-999.0,91,-99.99,,,0.12,weatherlink.com 1.10,2013-02-13 04:35:00,
2013-02-12 23:50:00,38.0,36.0,29.83,North,5,0.0,-999.0,92,-99.99,,,0.12,weatherlink.com 1.10,2013-02-13 04:50:00,